[[{"header":{"parameterUnit":"m.s-1","parameterCategory":1,"la1":30.2991,"la2":30.254,"lo1":-89.0895,"lo2":-89.0444,"dy":0.0017,"dx":0.0017,"nx":28,"ny":28,"refTime":"2024-11-26T03:00:00:Z","depth":0,"parameterNumber":2,"parameterNumberName":"U-component_of_WINDS"},"data":[0,0,0,0,0,0,0,0,0,0,0,0,0,0,0,0,0,0,0,0,0,0,0,0,0,0,0,0,0,0,0,0,0,0,0,0,0,0,0,0,0,0,0,0,0,0,0,0,0,0,0,0,0,0,0,0,0,0,-0.8977,-0.8977,0,-0.8946,-0.8945,-0.8945,-0.8911,-0.891,-0.891,-0.8909,-0.8875,-0.8874,-0.8874,0,0,0,0,0,0,0,0,0,0,0,0,0,-0.9006,-0.9005,-0.8977,-0.8977,-0.8976,-0.8946,-0.8945,-0.8945,-0.8911,-0.891,-0.8909,-0.8909,-0.8875,-0.8875,-0.8874,0,0,0,0,0,0,0,0,0,0,0,0,0,-0.8986,-0.9005,-0.8977,-0.8956,-0.8953,-0.8946,-0.8945,-0.8945,-0.8911,-0.891,-0.8909,-0.8909,-0.8875,-0.8875,-0.8874,-0.8884,0,0,-0.8872,-0.8872,0,0,0,0,0,0,0,0,-0.8987,-0.8985,-0.8959,-0.8957,-0.8955,-0.8931,-0.8943,-0.8924,-0.8911,-0.8927,-0.8909,-0.8908,-0.8894,-0.8892,-0.8888,-0.8883,-0.8881,-0.8872,-0.8871,-0.8871,-0.8871,0,0,0,0,0,0,0,-0.8988,-0.8986,-0.8965,-0.8959,-0.8956,-0.8947,-0.8943,-0.8939,-0.8915,-0.8925,-0.8923,-0.892,-0.8893,-0.8888,-0.8886,-0.8881,-0.8872,-0.8871,-0.8871,-0.887,-0.8882,-0.8883,0,0,0,0,0,0,-0.8993,-0.8987,-0.8966,-0.8964,-0.8969,-0.8947,-0.8943,-0.8939,-0.8915,-0.8911,-0.892,-0.8918,-0.889,-0.8887,-0.8885,-0.8895,-0.8871,-0.887,-0.887,-0.8882,-0.8883,-0.8883,0,0,0,0,0,0,-0.8994,-0.8991,-0.8967,-0.8975,-0.8971,-0.8947,-0.8944,-0.8939,-0.8935,-0.8911,-0.8906,-0.892,-0.8889,-0.8886,-0.8885,-0.8894,-0.887,-0.8869,-0.8881,-0.8882,-0.8883,-0.8916,0,0,0,0,0,0,-0.8995,-0.8992,-0.8996,-0.8975,-0.8971,-0.8968,-0.8944,-0.8939,-0.8934,-0.8931,-0.891,-0.8906,-0.8888,-0.8886,-0.8884,-0.8892,-0.8869,-0.888,-0.8881,-0.8883,-0.8914,-0.8918,-0.8922,0,0,0,0,0,-0.8996,-0.9006,-0.8997,-0.8994,-0.8975,-0.8968,-0.8966,-0.8946,-0.8935,-0.8938,-0.8923,-0.8906,-0.8893,-0.8886,-0.8884,-0.8892,-0.8879,-0.8881,-0.8883,-0.8912,-0.8917,-0.8922,0,0,0,0,0,0,-0.9028,-0.9003,-0.8992,-0.8996,-0.8985,-0.8963,-0.8967,-0.8952,-0.8943,-0.8941,-0.8916,-0.8911,-0.8913,-0.8902,-0.8895,-0.89,-0.8884,-0.8885,-0.8907,-0.8912,-0.8916,-0.8918,-0.8868,0,0,0,0,0,-0.9036,-0.9033,-0.9011,-0.9017,-0.9012,-0.899,-0.8987,-0.8973,-0.8959,-0.8954,-0.8939,-0.8926,-0.8919,-0.8915,-0.8907,-0.8913,-0.8907,-0.8917,-0.8921,-0.8924,-0.8925,-0.8926,-0.893,-0.8889,-0.8889,-0.8889,0,0,-0.9052,-0.9038,-0.9037,-0.9023,-0.9013,-0.9009,-0.8987,-0.8984,-0.8981,-0.8954,-0.8952,-0.894,-0.8924,-0.8926,-0.8926,-0.8917,-0.8935,-0.8926,-0.8929,-0.8928,-0.8928,-0.8932,-0.8936,-0.889,-0.889,-0.8889,0,0,-0.9079,-0.9068,-0.9072,-0.9062,-0.9047,-0.9032,-0.9033,-0.9013,-0.9005,-0.9003,-0.8982,-0.8978,-0.8966,-0.8956,-0.8949,-0.8972,-0.8956,-0.897,-0.899,-0.8991,-0.8995,-0.8997,-0.9005,-0.9008,-0.8972,-0.8972,-0.8972,0,-0.91,-0.9095,-0.9075,-0.9074,-0.9068,-0.9044,-0.9047,-0.9038,-0.9021,-0.9017,-0.9007,-0.8992,-0.898,-0.8979,-0.8985,-0.898,-0.898,-0.8972,-0.8996,-0.8998,-0.9001,-0.9008,-0.9011,-0.8973,-0.8973,-0.8973,-0.8973,0,-0.9122,-0.9119,-0.9123,-0.9108,-0.9102,-0.9103,-0.9083,-0.908,-0.9066,-0.9053,-0.905,-0.9035,-0.9023,-0.9022,-0.9009,-0.9019,-0.9014,-0.9001,-0.8983,-0.9007,-0.9013,-0.9015,-0.8976,-0.8975,-0.8975,-0.8974,0,0,-0.9168,-0.9142,-0.9144,-0.9136,-0.9118,-0.9114,-0.9114,-0.9104,-0.9101,-0.909,-0.9088,-0.908,-0.9067,-0.9059,-0.9044,-0.9046,-0.9065,-0.9032,-0.9031,-0.9038,-0.9074,-0.9084,-0.9087,-0.9054,-0.9055,-0.9055,-0.9075,0,-0.9191,-0.9189,-0.9171,-0.9175,-0.9171,-0.9148,-0.9148,-0.9136,-0.9123,-0.9118,-0.9104,-0.9098,-0.9082,-0.9077,-0.9078,-0.9062,-0.9071,-0.9061,-0.9051,-0.9051,-0.9055,-0.9091,-0.9101,-0.9121,-0.9078,-0.9078,-0.9078,0,-0.9218,-0.9209,-0.9212,-0.9193,-0.9191,-0.9191,-0.918,-0.9175,-0.9161,-0.9152,-0.9144,-0.9127,-0.9125,-0.9109,-0.9105,-0.9098,-0.9093,-0.9085,-0.9085,-0.9083,-0.9066,-0.9088,-0.9127,-0.9129,-0.9082,-0.9082,-0.9081,0,-0.925,-0.9239,-0.9239,-0.9234,-0.9212,-0.9213,-0.9204,-0.9189,-0.9184,-0.9174,-0.917,-0.9159,-0.9153,-0.9145,-0.9126,-0.9117,-0.9124,-0.9107,-0.9115,-0.9116,-0.9117,-0.9117,-0.9154,-0.9115,-0.9115,-0.9115,-0.9115,0,-0.9277,-0.928,-0.9254,-0.9254,-0.9256,-0.9235,-0.9237,-0.9226,-0.9213,-0.921,-0.9189,-0.9187,-0.9162,-0.9156,-0.9141,-0.914,-0.9137,-0.9129,-0.9125,-0.913,-0.9131,-0.9126,-0.9124,-0.9116,-0.9116,-0.9116,-0.9116,0,-0.9313,-0.9296,-0.9295,-0.9275,-0.927,-0.9272,-0.9254,-0.9253,-0.924,-0.9236,-0.9234,-0.9212,-0.9205,-0.9185,-0.9172,-0.9162,-0.9164,-0.9157,-0.9169,-0.9166,-0.9175,-0.9174,-0.921,-0.9213,-0.9173,-0.9174,-0.9174,0,-0.9331,-0.9333,-0.9313,-0.931,-0.9302,-0.9297,-0.9292,-0.9271,-0.9267,-0.9251,-0.9251,-0.9242,-0.9234,-0.9222,-0.9205,-0.9195,-0.9187,-0.92,-0.9185,-0.919,-0.9186,-0.9186,-0.9185,-0.9203,-0.9203,-0.9204,-0.9204,0,-0.9365,-0.9356,-0.935,-0.9341,-0.9335,-0.9327,-0.9317,-0.9315,-0.9292,-0.9287,-0.928,-0.9273,-0.926,-0.9251,-0.9238,-0.9228,-0.9212,-0.9209,-0.921,-0.9216,-0.9222,-0.9218,-0.9177,-0.9208,-0.9208,-0.9207,-0.9207,-0.9207,-0.9392,-0.9392,-0.9378,-0.9372,-0.9363,-0.9354,-0.9352,-0.9338,-0.9332,-0.932,-0.9308,-0.9302,-0.9287,-0.9268,-0.9259,-0.9253,-0.9245,-0.9247,-0.9247,-0.9248,-0.925,-0.9224,-0.9251,-0.925,-0.925,-0.925,-0.925,0,-0.9424,-0.9414,-0.9408,-0.9396,-0.939,-0.9377,-0.9365,-0.9362,-0.9356,-0.9345,-0.9337,-0.9328,-0.9319,-0.9301,-0.929,-0.9289,-0.9281,-0.9286,-0.9286,-0.9283,-0.9258,-0.9258,-0.9293,-0.9293,-0.9293,-0.9293,-0.9293,-0.9293,-0.944,-0.9439,-0.9429,-0.9424,-0.9414,-0.9408,-0.9402,-0.9394,-0.9384,-0.9375,-0.9368,-0.9357,-0.9342,-0.933,-0.9321,-0.9316,-0.9313,-0.932,-0.9313,-0.9289,-0.9285,-0.9281,-0.9281,-0.932,-0.932,-0.9338,-0.9338,-0.9338]},{"header":{"parameterUnit":"m.s-1","parameterCategory":1,"la1":30.2991,"la2":30.254,"lo1":-89.0895,"lo2":-89.0444,"dy":0.0017,"dx":0.0017,"nx":28,"ny":28,"refTime":"2024-11-26T03:00:00:Z","depth":0,"parameterNumber":3,"parameterNumberName":"V-component_of_WINDS"},"data":[0,0,0,0,0,0,0,0,0,0,0,0,0,0,0,0,0,0,0,0,0,0,0,0,0,0,0,0,0,0,0,0,0,0,0,0,0,0,0,0,0,0,0,0,0,0,0,0,0,0,0,0,0,0,0,0,0,0,-3.5187,-3.5188,0,-3.5293,-3.5294,-3.5295,-3.5292,-3.5291,-3.5289,-3.5288,-3.5391,-3.5395,-3.5399,0,0,0,0,0,0,0,0,0,0,0,0,0,-3.4977,-3.4981,-3.5187,-3.5188,-3.5189,-3.5293,-3.5294,-3.5296,-3.5292,-3.529,-3.5289,-3.5287,-3.539,-3.5395,-3.54,0,0,0,0,0,0,0,0,0,0,0,0,0,-3.5074,-3.4982,-3.5186,-3.52,-3.5203,-3.5292,-3.5294,-3.5296,-3.5293,-3.529,-3.5288,-3.5286,-3.5388,-3.5394,-3.5401,-3.5482,0,0,-3.5419,-3.5422,0,0,0,0,0,0,0,0,-3.5068,-3.5081,-3.5197,-3.5199,-3.5202,-3.5277,-3.5258,-3.5358,-3.5293,-3.5258,-3.5288,-3.5285,-3.5355,-3.5364,-3.5388,-3.5487,-3.5491,-3.542,-3.5424,-3.5426,-3.5428,0,0,0,0,0,0,0,-3.5062,-3.5077,-3.5228,-3.5198,-3.5202,-3.52,-3.5211,-3.5277,-3.5317,-3.5261,-3.5261,-3.5274,-3.5356,-3.5382,-3.5391,-3.5493,-3.542,-3.5425,-3.5429,-3.5431,-3.5664,-3.5667,0,0,0,0,0,0,-3.5053,-3.5071,-3.5225,-3.5232,-3.5129,-3.5205,-3.5218,-3.5255,-3.5317,-3.5324,-3.5276,-3.5274,-3.5373,-3.5383,-3.5394,-3.5494,-3.5426,-3.5432,-3.5436,-3.5662,-3.5665,-3.5668,0,0,0,0,0,0,-3.5048,-3.5066,-3.5221,-3.5152,-3.5171,-3.5211,-3.5253,-3.5258,-3.5285,-3.5328,-3.5334,-3.5296,-3.5371,-3.5385,-3.5461,-3.5498,-3.5435,-3.544,-3.5659,-3.5663,-3.5666,-3.5694,0,0,0,0,0,0,-3.5042,-3.5065,-3.5097,-3.5152,-3.5175,-3.5287,-3.5255,-3.5262,-3.5296,-3.5294,-3.5348,-3.5355,-3.5371,-3.5452,-3.5467,-3.5505,-3.5445,-3.5656,-3.5661,-3.5665,-3.569,-3.5698,-3.5706,0,0,0,0,0,-3.5035,-3.5099,-3.5099,-3.5117,-3.5216,-3.5289,-3.5302,-3.532,-3.5299,-3.5331,-3.5359,-3.5353,-3.5491,-3.5459,-3.5476,-3.5517,-3.5654,-3.5659,-3.5665,-3.5687,-3.5697,-3.5705,0,0,0,0,0,0,-3.5045,-3.5107,-3.5107,-3.5192,-3.5235,-3.5288,-3.5329,-3.533,-3.5379,-3.5375,-3.5394,-3.5407,-3.5482,-3.5507,-3.547,-3.5599,-3.557,-3.5579,-3.558,-3.559,-3.5598,-3.559,-3.545,0,0,0,0,0,-3.5058,-3.5113,-3.5163,-3.5233,-3.5256,-3.5289,-3.5321,-3.5332,-3.5377,-3.5395,-3.5428,-3.5471,-3.5524,-3.5559,-3.561,-3.5694,-3.5706,-3.573,-3.5738,-3.5744,-3.5752,-3.5798,-3.581,-3.5686,-3.5686,-3.5686,0,0,-3.5083,-3.5124,-3.5157,-3.5237,-3.5272,-3.5327,-3.5304,-3.5364,-3.5405,-3.5404,-3.5477,-3.5503,-3.5552,-3.5633,-3.567,-3.5656,-3.5789,-3.5751,-3.5756,-3.576,-3.5805,-3.5817,-3.5827,-3.569,-3.5689,-3.5689,0,0,-3.5159,-3.5195,-3.5258,-3.5294,-3.5349,-3.5371,-3.5386,-3.544,-3.5457,-3.5532,-3.5532,-3.5581,-3.5672,-3.5707,-3.5737,-3.5828,-3.5824,-3.5843,-3.5883,-3.5929,-3.5938,-3.5947,-3.5979,-3.5991,-3.5851,-3.5851,-3.5851,0,-3.5183,-3.5269,-3.529,-3.5351,-3.5385,-3.5389,-3.5452,-3.5485,-3.5553,-3.5576,-3.556,-3.5675,-3.5709,-3.5797,-3.582,-3.5844,-3.5861,-3.5837,-3.5936,-3.5945,-3.5953,-3.5984,-3.5996,-3.5853,-3.5853,-3.5853,-3.5852,0,-3.5296,-3.5356,-3.54,-3.5467,-3.5507,-3.5568,-3.5597,-3.5635,-3.5642,-3.5666,-3.5742,-3.5782,-3.5842,-3.5864,-3.5871,-3.5954,-3.5944,-3.5932,-3.5902,-3.5967,-3.5996,-3.6008,-3.5856,-3.5855,-3.5855,-3.5854,0,0,-3.538,-3.546,-3.5476,-3.5507,-3.5568,-3.5613,-3.5675,-3.5735,-3.5767,-3.5814,-3.5865,-3.5943,-3.5933,-3.5967,-3.5978,-3.6018,-3.6087,-3.6,-3.6002,-3.6015,-3.6181,-3.619,-3.6203,-3.6085,-3.6088,-3.609,-3.6177,0,-3.5462,-3.5573,-3.5594,-3.569,-3.5745,-3.575,-3.5804,-3.5846,-3.587,-3.5919,-3.5945,-3.6,-3.5982,-3.6002,-3.6042,-3.607,-3.612,-3.6064,-3.6133,-3.6135,-3.612,-3.6219,-3.6228,-3.6308,-3.6189,-3.6191,-3.6192,0,-3.5571,-3.5623,-3.5726,-3.5781,-3.5805,-3.5853,-3.591,-3.5958,-3.6006,-3.602,-3.6059,-3.6066,-3.6129,-3.6098,-3.6185,-3.6146,-3.6175,-3.6193,-3.6197,-3.6203,-3.6167,-3.6228,-3.6334,-3.6346,-3.621,-3.6209,-3.6208,0,-3.5622,-3.5717,-3.5792,-3.5818,-3.5884,-3.5917,-3.5946,-3.5992,-3.6028,-3.6078,-3.6101,-3.6156,-3.6187,-3.6229,-3.6251,-3.6226,-3.6337,-3.6306,-3.635,-3.6349,-3.6372,-3.637,-3.6485,-3.6392,-3.6391,-3.6391,-3.6391,0,-3.5711,-3.5773,-3.5815,-3.5861,-3.5931,-3.5954,-3.6022,-3.605,-3.6092,-3.6142,-3.6149,-3.6195,-3.6221,-3.6271,-3.6288,-3.6358,-3.6371,-3.6384,-3.6388,-3.6384,-3.6382,-3.6402,-3.6397,-3.6394,-3.6394,-3.6393,-3.6392,0,-3.5779,-3.581,-3.5891,-3.5947,-3.5963,-3.6012,-3.606,-3.6103,-3.6128,-3.6191,-3.6207,-3.6245,-3.6304,-3.6331,-3.6403,-3.6415,-3.6494,-3.6494,-3.6478,-3.648,-3.6521,-3.6517,-3.6653,-3.6672,-3.6566,-3.6567,-3.6568,0,-3.5833,-3.5882,-3.5944,-3.5979,-3.601,-3.6066,-3.6103,-3.6127,-3.6165,-3.6225,-3.6261,-3.6322,-3.6371,-3.6466,-3.6498,-3.6554,-3.6555,-3.6599,-3.6563,-3.6558,-3.6556,-3.6552,-3.6557,-3.6605,-3.6606,-3.6607,-3.6608,0,-3.5926,-3.594,-3.5994,-3.6054,-3.6098,-3.6145,-3.6192,-3.622,-3.6252,-3.6294,-3.6356,-3.6395,-3.647,-3.6529,-3.6588,-3.6615,-3.6617,-3.6619,-3.6632,-3.6627,-3.6617,-3.6623,-3.6496,-3.6615,-3.6615,-3.6614,-3.6614,-3.6613,-3.5989,-3.6033,-3.6084,-3.6144,-3.6183,-3.6226,-3.6271,-3.6302,-3.6355,-3.6419,-3.643,-3.6496,-3.6544,-3.6623,-3.6653,-3.6704,-3.6693,-3.6712,-3.6717,-3.6721,-3.6724,-3.6609,-3.6715,-3.6715,-3.6714,-3.6714,-3.6714,0,-3.6083,-3.6117,-3.6172,-3.6238,-3.6285,-3.6285,-3.6336,-3.6375,-3.6434,-3.6479,-3.6529,-3.66,-3.6658,-3.6697,-3.6755,-3.6789,-3.6791,-3.6803,-3.6801,-3.6807,-3.673,-3.6713,-3.6801,-3.6801,-3.6801,-3.6801,-3.6801,-3.6801,-3.6137,-3.6211,-3.6231,-3.6324,-3.6357,-3.6424,-3.6453,-3.6493,-3.653,-3.661,-3.6659,-3.6685,-3.6727,-3.6789,-3.6842,-3.6852,-3.6873,-3.6886,-3.6895,-3.6822,-3.6813,-3.6804,-3.6788,-3.689,-3.6891,-3.6968,-3.6969,-3.697]}]]